QPF
0.00 0.00 0.00 0.00 0.00 0.00 0.00 0.00 0.00 0.00 0.00 0.00 0.01 0.01 0.00 0.00 0.00 0.00 0.00 0.01 0.01 0.01 0.01 0.01 0.00 0.00 0.00 0.00 0.00 0.00 0.00 0.00 0.00 0.00 0.00 0.00 0.00 0.00 0.00 0.00 0.00 0.00 0.00
0.00 0.00 0.00 0.00 0.00 0.00 0.00 0.00 0.00 0.00 0.00 0.00 0.00 0.00 0.00 0.00 0.00 0.00 0.00 0.00 0.01 0.01 0.01 0.01 0.01 0.01 0.01 0.01 0.00 0.00 0.00 0.00 0.00 0.00 0.00 0.00 0.00 0.00 0.00 0.00 0.00 0.00 0.00
0.00 0.00 0.00 0.00 0.00 0.00 0.00 0.00 0.00 0.00 0.00 0.00 0.00 0.00 0.00 0.01 0.01 0.00 0.00 0.00 0.00 0.01 0.01 0.01 0.02 0.02 0.02 0.01 0.01 0.01 0.01 0.00 0.00 0.00 0.00 0.00 0.00 0.00 0.00 0.00 0.00 0.00 0.00
0.00 0.00 0.00 0.00 0.00 0.00 0.00 0.00 0.00 0.00 0.00 0.00 0.00 0.00 0.00 0.00 0.00 0.00 0.00 0.00 0.00 0.01 0.01 0.01 0.02 0.02 0.03 0.03 0.03 0.04 0.03 0.01 0.01 0.01 0.00 0.00 0.00 0.00 0.00 0.00 0.00 0.00 0.00
0.00 0.00 0.00 0.00 0.00 0.00 0.00 0.00 0.00 0.00 0.00 0.00 0.00 0.00 0.00 0.00 0.00 0.00 0.00 0.00 0.00 0.01 0.01 0.02 0.02 0.02 0.03 0.04 0.06 0.06 0.05 0.04 0.03 0.02 0.03 0.02 0.01 0.00 0.00 0.00 0.00 0.00 0.00
0.00 0.00 0.00 0.00 0.00 0.00 0.00 0.00 0.00 0.00 0.00 0.00 0.00 0.00 0.00 0.00 0.00 0.00 0.00 0.00 0.01 0.01 0.02 0.03 0.02 0.02 0.03 0.05 0.07 0.08 0.08 0.09 0.08 0.05 0.05 0.05 0.04 0.03 0.02 0.01 0.01 0.01 0.01
0.00 0.00 0.00 0.00 0.00 0.00 0.00 0.00 0.00 0.00 0.00 0.00 0.00 0.00 0.00 0.00 0.00 0.00 0.00 0.00 0.01 0.02 0.03 0.03 0.03 0.04 0.04 0.06 0.08 0.09 0.09 0.11 0.11 0.09 0.08 0.10 0.09 0.07 0.06 0.05 0.03 0.02 0.01
0.00 0.00 0.00 0.00 0.00 0.00 0.00 0.00 0.00 0.00 0.00 0.00 0.00 0.00 0.00 0.00 0.00 0.00 0.00 0.00 0.01 0.01 0.03 0.04 0.05 0.05 0.06 0.06 0.08 0.09 0.10 0.12 0.12 0.12 0.11 0.10 0.11 0.10 0.10 0.10 0.09 0.08 0.06
0.00 0.00 0.00 0.00 0.00 0.00 0.00 0.00 0.00 0.00 0.00 0.00 0.00 0.00 0.00 0.00 0.00 0.00 0.00 0.01 0.01 0.02 0.03 0.05 0.06 0.06 0.07 0.08 0.09 0.09 0.10 0.12 0.13 0.13 0.13 0.12 0.12 0.12 0.12 0.13 0.15 0.17 0.16
0.00 0.00 0.00 0.00 0.00 0.00 0.00 0.00 0.00 0.00 0.00 0.00 0.00 0.00 0.00 0.00 0.00 0.00 0.00 0.00 0.00 0.01 0.02 0.04 0.05 0.06 0.07 0.08 0.10 0.10 0.11 0.12 0.12 0.13 0.13 0.13 0.13 0.13 0.13 0.15 0.18 0.20 0.22
0.00 0.00 0.00 0.00 0.00 0.00 0.00 0.00 0.00 0.00 0.00 0.00 0.00 0.00 0.00 0.00 0.00 0.00 0.00 0.00 0.00 0.00 0.01 0.02 0.04 0.05 0.07 0.08 0.08 0.09 0.10 0.11 0.10 0.10 0.11 0.12 0.12 0.13 0.14 0.16 0.18 0.21 0.24
0.00 0.00 0.00 0.00 0.00 0.00 0.00 0.00 0.00 0.00 0.00 0.00 0.00 0.00 0.00 0.00 0.00 0.00 0.00 0.00 0.00 0.01 0.01 0.02 0.04 0.05 0.06 0.07 0.07 0.08 0.08 0.08 0.08 0.09 0.09 0.10 0.10 0.12 0.14 0.16 0.19 0.21 0.23
0.00 0.00 0.00 0.00 0.00 0.00 0.00 0.00 0.00 0.00 0.00 0.00 0.00 0.00 0.00 0.00 0.00 0.00 0.00 0.01 0.01 0.02 0.02 0.03 0.05 0.05 0.05 0.06 0.06 0.06 0.06 0.06 0.06 0.06 0.07 0.08 0.09 0.11 0.12 0.14 0.16 0.17 0.18
0.00 0.00 0.00 0.00 0.00 0.00 0.00 0.00 0.00 0.00 0.00 0.00 0.00 0.00 0.00 0.00 0.00 0.00 0.00 0.01 0.01 0.02 0.02 0.02 0.03 0.03 0.03 0.04 0.04 0.04 0.05 0.05 0.05 0.06 0.07 0.08 0.09 0.11 0.12 0.14 0.14 0.14 0.14
0.00 0.00 0.00 0.00 0.00 0.00 0.00 0.00 0.00 0.00 0.00 0.00 0.00 0.00 0.00 0.00 0.00 0.00 0.00 0.00 0.01 0.01 0.01 0.01 0.02 0.02 0.02 0.02 0.02 0.03 0.05 0.06 0.07 0.08 0.10 0.12 0.15 0.15 0.14 0.13 0.12 0.11 0.10
0.00 0.00 0.00 0.00 0.00 0.00 0.00 0.00 0.00 0.00 0.00 0.00 0.00 0.00 0.00 0.00 0.00 0.00 0.00 0.00 0.00 0.00 0.00 0.01 0.01 0.02 0.03 0.03 0.03 0.03 0.03 0.05 0.07 0.10 0.13 0.15 0.17 0.15 0.14 0.12 0.09 0.08 0.07
0.00 0.00 0.00 0.00 0.00 0.00 0.00 0.00 0.00 0.00 0.00 0.00 0.00 0.00 0.00 0.00 0.00 0.00 0.00 0.00 0.00 0.01 0.01 0.01 0.02 0.03 0.04 0.06 0.05 0.06 0.05 0.07 0.08 0.09 0.10 0.09 0.09 0.09 0.07 0.07 0.06 0.06 0.05
0.00 0.00 0.00 0.00 0.00 0.00 0.00 0.00 0.00 0.00 0.00 0.00 0.00 0.00 0.00 0.00 0.00 0.00 0.00 0.00 0.01 0.01 0.01 0.02 0.02 0.03 0.04 0.05 0.05 0.06 0.06 0.07 0.08 0.08 0.07 0.05 0.04 0.03 0.02 0.02 0.01 0.01 0.01
0.00 0.00 0.00 0.00 0.00 0.00 0.00 0.00 0.00 0.00 0.00 0.00 0.00 0.00 0.00 0.00 0.00 0.00 0.00 0.01 0.02 0.02 0.02 0.02 0.02 0.03 0.05 0.06 0.06 0.05 0.05 0.05 0.05 0.04 0.03 0.02 0.01 0.01 0.01 0.01 0.00 0.00 0.00
0.00 0.00 0.00 0.00 0.00 0.00 0.00 0.00 0.00 0.00 0.00 0.00 0.00 0.00 0.00 0.00 0.00 0.00 0.00 0.00 0.01 0.02 0.03 0.03 0.03 0.03 0.04 0.04 0.04 0.04 0.04 0.03 0.02 0.01 0.01 0.00 0.00 0.00 0.00 0.00 0.00 0.00 0.00
0.00 0.00 0.00 0.00 0.00 0.00 0.00 0.00 0.00 0.00 0.00 0.00 0.00 0.00 0.00 0.00 0.00 0.00 0.00 0.00 0.01 0.02 0.02 0.02 0.02 0.02 0.02 0.02 0.01 0.01 0.01 0.00 0.00 0.00 0.00 0.00 0.00 0.00 0.00 0.00 0.00 0.00 0.00
0.00 0.00 0.00 0.00 0.00 0.00 0.00 0.00 0.00 0.00 0.00 0.00 0.00 0.00 0.00 0.00 0.00 0.00 0.00 0.00 0.01 0.01 0.01 0.01 0.01 0.01 0.00 0.00 0.00 0.00 0.00 0.00 0.00 0.00 0.00 0.00 0.00 0.00 0.00 0.00 0.00 0.00 0.00
0.00 0.00 0.00 0.00 0.00 0.00 0.00 0.00 0.00 0.00 0.00 0.00 0.00 0.00 0.00 0.00 0.00 0.00 0.00 0.00 0.00 0.01 0.01 0.01 0.01 0.00 0.00 0.00 0.00 0.00 0.00 0.00 0.00 0.00 0.00 0.00 0.00 0.00 0.00 0.00 0.00 0.00 0.00
0.00 0.00 0.00 0.00 0.00 0.00 0.00 0.00 0.00 0.00 0.00 0.00 0.00 0.00 0.00 0.00 0.00 0.00 0.00 0.00 0.00 0.00 0.00 0.00 0.00 0.00 0.00 0.00 0.00 0.00 0.00 0.00 0.00 0.00 0.00 0.00 0.00 0.00 0.00 0.00 0.00 0.00 0.00
0.00 0.00 0.00 0.00 0.00 0.00 0.00 0.00 0.00 0.00 0.00 0.00 0.00 0.00 0.00 0.00 0.00 0.00 0.00 0.00 0.00 0.00 0.00 0.00 0.00 0.00 0.00 0.00 0.00 0.00 0.00 0.00 0.00 0.00 0.00 0.00 0.00 0.00 0.00 0.00 0.00 0.00 0.00
0.00 0.00 0.00 0.00 0.00 0.00 0.00 0.00 0.00 0.00 0.00 0.00 0.00 0.00 0.00 0.00 0.00 0.00 0.00 0.00 0.00 0.00 0.00 0.00 0.00 0.00 0.00 0.00 0.00 0.00 0.00 0.00 0.00 0.00 0.00 0.00 0.00 0.00 0.00 0.00 0.00 0.00 0.00
MSLP
1012.71 1012.81 1012.92 1013.03 1013.11 1013.15 1013.18 1013.20 1013.24 1013.32 1013.43 1013.58 1013.76 1013.95 1014.14 1014.30 1014.43 1014.53 1014.61 1014.70 1014.81 1014.96 1015.17 1015.43 1015.76 1016.14 1016.55 1016.98 1017.41 1017.84 1018.25 1018.64 1018.99 1019.32 1019.61 1019.85 1020.05 1020.20 1020.30 1020.39 1020.46 1020.56 1020.70
1013.09 1013.21 1013.33 1013.41 1013.45 1013.46 1013.43 1013.39 1013.37 1013.39 1013.45 1013.54 1013.66 1013.79 1013.90 1013.99 1014.05 1014.09 1014.13 1014.19 1014.29 1014.44 1014.66 1014.94 1015.29 1015.67 1016.08 1016.51 1016.93 1017.35 1017.76 1018.15 1018.53 1018.88 1019.20 1019.48 1019.70 1019.87 1019.99 1020.06 1020.12 1020.20 1020.31
1013.47 1013.62 1013.74 1013.81 1013.82 1013.79 1013.71 1013.63 1013.56 1013.52 1013.52 1013.56 1013.61 1013.66 1013.70 1013.71 1013.69 1013.67 1013.66 1013.68 1013.75 1013.89 1014.11 1014.39 1014.73 1015.11 1015.51 1015.92 1016.32 1016.72 1017.11 1017.50 1017.88 1018.26 1018.61 1018.92 1019.19 1019.39 1019.54 1019.64 1019.72 1019.80 1019.92
1013.79 1013.96 1014.09 1014.16 1014.16 1014.09 1013.99 1013.87 1013.76 1013.68 1013.64 1013.61 1013.60 1013.58 1013.53 1013.46 1013.37 1013.28 1013.21 1013.18 1013.22 1013.34 1013.53 1013.80 1014.12 1014.48 1014.85 1015.22 1015.59 1015.96 1016.32 1016.70 1017.09 1017.48 1017.86 1018.22 1018.53 1018.79 1018.99 1019.14 1019.26 1019.38 1019.53
1013.99 1014.19 1014.34 1014.42 1014.42 1014.35 1014.23 1014.10 1013.97 1013.86 1013.77 1013.70 1013.62 1013.53 1013.41 1013.27 1013.10 1012.94 1012.81 1012.73 1012.73 1012.81 1012.98 1013.21 1013.50 1013.82 1014.15 1014.48 1014.80 1015.13 1015.48 1015.84 1016.22 1016.62 1017.02 1017.42 1017.78 1018.10 1018.36 1018.58 1018.77 1018.96 1019.16
1014.06 1014.30 1014.48 1014.58 1014.61 1014.55 1014.45 1014.32 1014.19 1014.06 1013.94 1013.82 1013.69 1013.53 1013.35 1013.13 1012.90 1012.68 1012.49 1012.37 1012.32 1012.36 1012.48 1012.68 1012.92 1013.19 1013.47 1013.75 1014.04 1014.33 1014.64 1014.98 1015.35 1015.75 1016.17 1016.60 1017.00 1017.38 1017.72 1018.01 1018.29 1018.55 1018.82
1014.01 1014.30 1014.53 1014.68 1014.75 1014.74 1014.67 1014.56 1014.43 1014.29 1014.15 1013.99 1013.81 1013.60 1013.35 1013.08 1012.80 1012.52 1012.29 1012.12 1012.03 1012.03 1012.11 1012.25 1012.45 1012.66 1012.89 1013.13 1013.36 1013.62 1013.89 1014.21 1014.56 1014.96 1015.38 1015.83 1016.27 1016.69 1017.09 1017.47 1017.82 1018.17 1018.52
1013.89 1014.24 1014.54 1014.76 1014.89 1014.94 1014.92 1014.84 1014.73 1014.58 1014.42 1014.23 1014.00 1013.74 1013.45 1013.13 1012.80 1012.50 1012.24 1012.04 1011.91 1011.87 1011.90 1012.00 1012.14 1012.31 1012.49 1012.67 1012.87 1013.08 1013.32 1013.60 1013.93 1014.31 1014.73 1015.18 1015.64 1016.09 1016.54 1016.98 1017.41 1017.84 1018.27
1013.76 1014.17 1014.55 1014.85 1015.06 1015.19 1015.23 1015.19 1015.10 1014.95 1014.77 1014.54 1014.28 1013.97 1013.64 1013.29 1012.94 1012.62 1012.34 1012.12 1011.98 1011.91 1011.91 1011.97 1012.06 1012.18 1012.31 1012.44 1012.59 1012.77 1012.97 1013.22 1013.52 1013.88 1014.28 1014.71 1015.17 1015.64 1016.12 1016.60 1017.08 1017.57 1018.07
1013.65 1014.14 1014.60 1014.99 1015.29 1015.50 1015.60 1015.62 1015.54 1015.40 1015.20 1014.94 1014.64 1014.31 1013.95 1013.58 1013.22 1012.90 1012.62 1012.41 1012.26 1012.17 1012.15 1012.17 1012.23 1012.30 1012.38 1012.48 1012.59 1012.72 1012.89 1013.11 1013.38 1013.70 1014.07 1014.48 1014.92 1015.39 1015.87 1016.37 1016.88 1017.40 1017.94
1013.62 1014.18 1014.72 1015.20 1015.59 1015.87 1016.04 1016.10 1016.05 1015.91 1015.70 1015.42 1015.10 1014.74 1014.37 1014.00 1013.65 1013.34 1013.08 1012.89 1012.75 1012.66 1012.63 1012.63 1012.65 1012.69 1012.74 1012.80 1012.87 1012.98 1013.12 1013.30 1013.53 1013.82 1014.15 1014.52 1014.93 1015.37 1015.84 1016.33 1016.83 1017.36 1017.90
1013.67 1014.29 1014.91 1015.46 1015.93 1016.28 1016.51 1016.61 1016.59 1016.46 1016.24 1015.95 1015.62 1015.26 1014.89 1014.54 1014.22 1013.94 1013.72 1013.54 1013.43 1013.36 1013.32 1013.31 1013.32 1013.33 1013.35 1013.38 1013.43 1013.51 1013.62 1013.77 1013.97 1014.22 1014.52 1014.85 1015.22 1015.61 1016.04 1016.48 1016.95 1017.44 1017.96
1013.81 1014.48 1015.15 1015.77 1016.29 1016.70 1016.97 1017.11 1017.11 1017.00 1016.79 1016.51 1016.19 1015.85 1015.51 1015.19 1014.90 1014.67 1014.49 1014.36 1014.27 1014.22 1014.19 1014.18 1014.18 1014.17 1014.18 1014.19 1014.22 1014.28 1014.37 1014.50 1014.67 1014.89 1015.14 1015.43 1015.74 1016.08 1016.45 1016.83 1017.24 1017.66 1018.10
1014.02 1014.73 1015.44 1016.08 1016.64 1017.08 1017.38 1017.55 1017.58 1017.49 1017.31 1017.07 1016.78 1016.47 1016.18 1015.91 1015.68 1015.50 1015.36 1015.28 1015.22 1015.20 1015.19 1015.18 1015.18 1015.17 1015.16 1015.16 1015.18 1015.23 1015.30 1015.42 1015.56 1015.75 1015.96 1016.21 1016.47 1016.74 1017.03 1017.34 1017.65 1017.98 1018.33
1014.29 1015.02 1015.73 1016.38 1016.94 1017.39 1017.71 1017.90 1017.96 1017.92 1017.78 1017.59 1017.35 1017.11 1016.88 1016.67 1016.50 1016.38 1016.30 1016.26 1016.24 1016.24 1016.24 1016.24 1016.24 1016.24 1016.23 1016.23 1016.24 1016.28 1016.34 1016.44 1016.57 1016.72 1016.90 1017.09 1017.30 1017.51 1017.72 1017.93 1018.14 1018.37 1018.60
1014.60 1015.33 1016.02 1016.65 1017.20 1017.63 1017.95 1018.16 1018.25 1018.25 1018.17 1018.04 1017.89 1017.72 1017.57 1017.44 1017.34 1017.28 1017.25 1017.24 1017.25 1017.27 1017.29 1017.30 1017.30 1017.29 1017.29 1017.28 1017.29 1017.32 1017.38 1017.46 1017.57 1017.70 1017.84 1017.99 1018.13 1018.27 1018.40 1018.53 1018.64 1018.76 1018.88
1014.92 1015.63 1016.29 1016.88 1017.38 1017.79 1018.10 1018.32 1018.44 1018.49 1018.48 1018.43 1018.36 1018.29 1018.22 1018.17 1018.14 1018.14 1018.15 1018.18 1018.21 1018.24 1018.26 1018.27 1018.27 1018.27 1018.26 1018.25 1018.26 1018.28 1018.32 1018.39 1018.48 1018.57 1018.68 1018.78 1018.87 1018.95 1019.01 1019.05 1019.08 1019.10 1019.12
1015.22 1015.90 1016.52 1017.06 1017.51 1017.88 1018.17 1018.39 1018.54 1018.64 1018.70 1018.74 1018.76 1018.78 1018.80 1018.83 1018.86 1018.91 1018.95 1019.00 1019.04 1019.08 1019.10 1019.11 1019.10 1019.09 1019.07 1019.06 1019.06 1019.07 1019.09 1019.14 1019.19 1019.26 1019.32 1019.38 1019.43 1019.46 1019.46 1019.44 1019.40 1019.35 1019.29
1015.48 1016.13 1016.69 1017.18 1017.58 1017.91 1018.18 1018.40 1018.57 1018.72 1018.85 1018.97 1019.08 1019.18 1019.28 1019.38 1019.47 1019.55 1019.62 1019.68 1019.72 1019.76 1019.77 1019.76 1019.75 1019.73 1019.70 1019.67 1019.66 1019.65 1019.65 1019.66 1019.69 1019.72 1019.74 1019.76 1019.77 1019.76 1019.72 1019.66 1019.58 1019.48 1019.38
1015.66 1016.27 1016.79 1017.23 1017.59 1017.89 1018.14 1018.36 1018.56 1018.75 1018.93 1019.12 1019.30 1019.48 1019.64 1019.80 1019.93 1020.04 1020.13 1020.20 1020.24 1020.26 1020.26 1020.24 1020.21 1020.17 1020.13 1020.09 1020.05 1020.02 1020.00 1019.98 1019.96 1019.96 1019.95 1019.93 1019.91 1019.87 1019.81 1019.73 1019.63 1019.52 1019.40
1015.72 1016.30 1016.79 1017.19 1017.52 1017.80 1018.05 1018.28 1018.50 1018.73 1018.96 1019.20 1019.44 1019.67 1019.88 1020.08 1020.25 1020.38 1020.48 1020.55 1020.58 1020.60 1020.58 1020.55 1020.51 1020.46 1020.40 1020.34 1020.28 1020.23 1020.17 1020.12 1020.07 1020.03 1019.99 1019.95 1019.90 1019.84 1019.77 1019.69 1019.59 1019.48 1019.37
1015.62 1016.18 1016.65 1017.05 1017.38 1017.66 1017.92 1018.16 1018.41 1018.67 1018.94 1019.21 1019.49 1019.76 1020.01 1020.23 1020.42 1020.57 1020.68 1020.75 1020.79 1020.79 1020.77 1020.74 1020.68 1020.62 1020.55 1020.48 1020.40 1020.32 1020.24 1020.16 1020.08 1020.01 1019.95 1019.88 1019.82 1019.75 1019.68 1019.61 1019.52 1019.43 1019.33
1015.36 1015.91 1016.38 1016.79 1017.14 1017.45 1017.74 1018.01 1018.29 1018.57 1018.87 1019.17 1019.47 1019.76 1020.03 1020.27 1020.47 1020.63 1020.75 1020.83 1020.88 1020.89 1020.87 1020.83 1020.78 1020.71 1020.64 1020.55 1020.46 1020.36 1020.27 1020.17 1020.07 1019.98 1019.89 1019.82 1019.74 1019.68 1019.61 1019.55 1019.48 1019.40 1019.32
1014.94 1015.48 1015.97 1016.42 1016.81 1017.17 1017.51 1017.82 1018.14 1018.45 1018.76 1019.08 1019.39 1019.68 1019.96 1020.21 1020.43 1020.60 1020.74 1020.83 1020.89 1020.91 1020.91 1020.88 1020.83 1020.77 1020.69 1020.61 1020.51 1020.41 1020.30 1020.20 1020.09 1019.99 1019.89 1019.81 1019.73 1019.66 1019.60 1019.54 1019.48 1019.41 1019.34
1014.39 1014.94 1015.46 1015.96 1016.41 1016.84 1017.23 1017.60 1017.95 1018.29 1018.62 1018.94 1019.25 1019.56 1019.84 1020.09 1020.32 1020.51 1020.67 1020.78 1020.86 1020.91 1020.92 1020.91 1020.87 1020.82 1020.75 1020.67 1020.58 1020.48 1020.37 1020.26 1020.16 1020.05 1019.96 1019.87 1019.79 1019.72 1019.66 1019.60 1019.54 1019.47 1019.39
1013.78 1014.34 1014.90 1015.45 1015.97 1016.47 1016.92 1017.35 1017.74 1018.10 1018.45 1018.77 1019.09 1019.39 1019.68 1019.94 1020.18 1020.39 1020.57 1020.71 1020.82 1020.89 1020.92 1020.93 1020.91 1020.86 1020.80 1020.73 1020.64 1020.55 1020.46 1020.36 1020.26 1020.16 1020.08 1019.99 1019.91 1019.84 1019.76 1019.69 1019.62 1019.53 1019.44
Thickness
5678 5682 5684 5686 5687 5688 5688 5690 5691 5693 5693 5691 5690 5689 5688 5689 5687 5685 5683 5680 5677 5675 5673 5672 5669 5666 5663 5659 5655 5650 5645 5641 5637 5630 5626 5626 5628 5628 5628 5627 5625 5623 5620
5667 5670 5673 5674 5675 5675 5677 5679 5681 5683 5684 5685 5685 5685 5684 5685 5685 5683 5680 5677 5673 5670 5667 5665 5663 5660 5657 5653 5650 5645 5639 5634 5631 5623 5615 5611 5613 5618 5622 5620 5619 5617 5615
5656 5659 5662 5663 5663 5663 5664 5667 5670 5673 5675 5677 5677 5677 5677 5676 5676 5676 5675 5674 5670 5666 5662 5659 5656 5653 5650 5647 5644 5640 5634 5628 5624 5622 5616 5610 5611 5609 5611 5614 5613 5611 5609
5647 5649 5651 5651 5652 5653 5655 5657 5660 5663 5666 5667 5667 5666 5664 5664 5666 5668 5669 5669 5667 5663 5659 5654 5649 5646 5642 5640 5638 5634 5629 5623 5617 5613 5615 5615 5613 5605 5600 5602 5604 5604 5602
5638 5640 5641 5642 5644 5644 5645 5647 5650 5653 5656 5657 5657 5656 5656 5657 5658 5660 5660 5660 5660 5659 5656 5651 5645 5640 5636 5633 5629 5626 5622 5618 5613 5608 5606 5603 5602 5603 5595 5590 5592 5593 5594
5630 5632 5634 5635 5635 5635 5636 5637 5640 5643 5645 5646 5647 5647 5646 5647 5647 5648 5648 5650 5651 5650 5649 5645 5641 5636 5631 5626 5622 5618 5614 5610 5606 5601 5597 5594 5591 5591 5589 5586 5581 5581 5582
5622 5623 5624 5624 5625 5625 5626 5627 5629 5631 5633 5634 5635 5636 5637 5637 5637 5638 5638 5639 5639 5639 5639 5637 5634 5630 5625 5620 5614 5609 5605 5601 5597 5594 5590 5587 5585 5583 5582 5579 5574 5570 5568
5615 5616 5616 5615 5615 5615 5616 5617 5618 5620 5621 5623 5624 5625 5627 5628 5628 5629 5629 5629 5629 5629 5629 5627 5625 5622 5617 5611 5605 5599 5595 5590 5586 5583 5579 5577 5576 5573 5572 5570 5563 5555 5550
5609 5608 5607 5606 5605 5605 5605 5606 5607 5608 5609 5611 5612 5614 5616 5617 5617 5618 5619 5619 5619 5619 5617 5615 5612 5609 5605 5599 5592 5586 5581 5576 5572 5569 5565 5563 5562 5561 5559 5558 5556 5550 5540
5600 5599 5597 5596 5595 5595 5595 5595 5596 5596 5597 5598 5600 5603 5604 5605 5606 5607 5607 5607 5606 5605 5603 5600 5597 5593 5589 5582 5575 5569 5563 5558 5555 5552 5549 5547 5544 5543 5543 5543 5542 5542 5539
5591 5589 5588 5587 5586 5585 5584 5584 5584 5584 5585 5587 5589 5590 5591 5592 5593 5594 5593 5593 5592 5590 5587 5584 5580 5574 5569 5562 5555 5548 5542 5537 5534 5531 5530 5527 5525 5525 5524 5524 5525 5525 5524
5583 5581 5579 5577 5575 5573 5572 5572 5572 5572 5573 5575 5577 5577 5577 5578 5579 5579 5579 5579 5577 5573 5570 5566 5561 5555 5547 5540 5534 5527 5522 5517 5513 5510 5508 5506 5505 5505 5506 5507 5508 5508 5508
5575 5573 5570 5568 5565 5563 5562 5562 5561 5561 5562 5564 5564 5564 5564 5564 5564 5564 5564 5563 5560 5556 5552 5547 5541 5534 5526 5519 5512 5507 5502 5497 5494 5492 5490 5488 5488 5487 5489 5490 5491 5491 5492
5567 5564 5561 5558 5556 5554 5553 5551 5551 5551 5552 5552 5552 5551 5551 5551 5551 5550 5549 5547 5544 5540 5534 5528 5522 5515 5508 5501 5495 5489 5484 5480 5477 5475 5473 5472 5472 5473 5474 5475 5475 5476 5477
5561 5557 5553 5549 5547 5546 5544 5542 5541 5540 5541 5541 5540 5539 5539 5539 5538 5537 5535 5532 5529 5524 5518 5512 5506 5500 5493 5487 5480 5474 5469 5465 5461 5458 5458 5457 5458 5459 5461 5461 5461 5462 5462
5555 5551 5547 5543 5540 5537 5535 5533 5532 5531 5531 5530 5529 5529 5528 5527 5526 5525 5522 5519 5514 5510 5504 5499 5493 5487 5481 5475 5469 5463 5457 5453 5449 5446 5445 5444 5445 5448 5449 5449 5450 5450 5449
5549 5544 5539 5535 5532 5529 5527 5525 5524 5522 5522 5521 5520 5519 5518 5516 5514 5512 5510 5506 5501 5497 5492 5486 5481 5475 5470 5465 5459 5453 5447 5442 5439 5437 5435 5435 5435 5435 5436 5438 5438 5438 5438
5543 5537 5532 5529 5526 5523 5521 5519 5517 5515 5513 5512 5511 5509 5507 5505 5503 5500 5497 5493 5489 5484 5479 5474 5469 5465 5460 5455 5450 5445 5439 5435 5432 5429 5428 5427 5426 5427 5427 5428 5428 5427 5427
5536 5530 5527 5523 5520 5517 5515 5513 5510 5507 5505 5503 5501 5499 5497 5495 5492 5489 5486 5482 5478 5473 5468 5463 5458 5454 5450 5447 5443 5439 5434 5430 5427 5425 5423 5422 5421 5422 5422 5421 5419 5418 5417
5528 5524 5521 5518 5515 5512 5510 5507 5503 5500 5497 5495 5493 5491 5489 5486 5483 5479 5476 5472 5468 5463 5459 5454 5450 5446 5443 5441 5438 5434 5430 5426 5423 5421 5419 5418 5417 5416 5416 5413 5411 5409 5407
5523 5520 5517 5513 5510 5508 5504 5500 5496 5493 5491 5489 5487 5484 5481 5478 5475 5472 5468 5464 5460 5456 5452 5448 5444 5441 5438 5435 5433 5430 5425 5422 5420 5417 5414 5413 5412 5410 5408 5406 5402 5400 5397
5518 5515 5511 5508 5505 5503 5499 5494 5490 5488 5486 5483 5481 5478 5475 5473 5469 5466 5462 5459 5455 5450 5446 5443 5439 5436 5433 5430 5428 5425 5422 5419 5415 5412 5409 5407 5405 5403 5400 5396 5394 5390 5386
5514 5511 5507 5504 5501 5499 5495 5490 5486 5484 5481 5478 5475 5473 5471 5468 5465 5461 5457 5454 5450 5446 5442 5438 5433 5430 5428 5425 5423 5420 5417 5414 5409 5406 5404 5401 5398 5395 5390 5387 5384 5379 5372
5511 5508 5504 5500 5497 5495 5492 5488 5484 5482 5478 5475 5471 5468 5465 5462 5459 5455 5452 5448 5443 5440 5437 5433 5429 5425 5422 5418 5416 5412 5409 5407 5403 5399 5396 5394 5391 5387 5383 5379 5373 5368 5361
5509 5505 5502 5499 5495 5492 5489 5486 5482 5479 5475 5470 5466 5463 5460 5456 5452 5448 5444 5440 5436 5433 5429 5425 5422 5418 5414 5413 5411 5406 5403 5399 5396 5393 5388 5385 5381 5377 5372 5367 5362 5356 5350
5506 5502 5499 5497 5494 5490 5486 5482 5479 5475 5471 5465 5461 5457 5453 5450 5446 5441 5436 5434 5431 5428 5425 5421 5417 5414 5411 5408 5404 5401 5397 5393 5390 5385 5379 5375 5370 5366 5361 5355 5349 5343 5336